CAPE
620 666 708 792 933 1052 1154 1107 1252 1172 1565 2232 2143 2257 2358 2486 2642 2484 1927 1930 1760 2025 2118 2105 2289 2168 1721 1057 436 4 14 49 412
505 654 730 825 1007 1198 1352 1321 1438 1424 1518 1999 2048 2091 2401 2515 2638 2553 2253 2386 2639 2143 2651 2185 2511 2132 1474 772 0 0 0 0 57
704 916 1003 1014 1070 1259 1486 1528 1489 1539 1726 2066 1872 1714 1865 2054 2468 2713 2577 2535 2732 2483 2529 2583 2420 1971 1365 440 0 0 0 0 0
700 901 1114 1331 1377 1392 1572 1628 1561 1784 1842 2052 1975 1865 1743 1904 2153 2347 2578 2333 2566 2839 2697 2801 2460 1967 1223 388 0 0 0 0 0
461 1205 1267 1542 1648 1589 1567 1716 1701 1844 1912 1864 1902 1884 2003 1868 1894 2175 2236 2509 2435 2848 2749 2727 2415 1925 1171 496 11 0 0 0 0
571 1028 1705 1715 1832 2001 1949 1884 1947 1888 2049 2043 1974 2141 1995 2032 1924 2230 2391 2328 2415 2693 2840 2629 2203 1800 1125 513 13 63 18 8 17
565 1023 1504 1715 1925 2067 2278 2345 2443 2462 2246 2160 2331 2240 2400 2463 2384 2381 2427 2389 2559 2535 2771 2567 2135 1575 1062 332 123 81 23 29 15
897 1068 1302 1521 1715 1973 2319 2515 2725 2792 2698 2627 2529 2656 2524 2687 2773 2712 2669 2618 2744 2502 2191 2042 1814 1324 805 238 111 34 46 1 15
2006 1843 1810 1971 2070 2131 2188 2315 2433 2642 2728 2717 2693 2701 2731 2734 3064 3073 2957 2584 1650 1508 1397 1670 1375 1116 760 239 42 0 0 0 17
1935 1847 1794 1728 1722 2050 2349 2241 2188 2234 2338 2563 2682 2788 2765 2750 2310 1896 1158 899 211 356 852 1261 1260 1017 637 253 227 0 0 0 9
1980 1770 1631 1534 1520 1683 1806 1977 2120 2184 2335 2306 1915 1914 1690 1559 967 319 131 69 10 35 115 427 1098 820 295 367 286 0 0 0 26
1664 1526 1378 1211 1122 1163 1306 1427 1386 872 843 1038 1078 797 293 235 183 103 118 241 456 479 311 389 512 574 476 442 383 0 0 0 52
1480 1340 1167 1049 903 870 902 888 645 650 676 499 53 7 6 2 3 39 209 267 377 546 867 689 548 568 599 322 485 0 0 0 156
1251 1194 1060 975 842 665 549 671 755 644 561 439 209 271 208 91 56 92 38 14 19 82 311 721 368 585 511 312 116 11 0 0 30
951 774 877 958 944 651 383 563 575 500 353 447 236 220 131 134 177 60 34 95 19 158 242 116 149 172 167 25 7 0 0 0 0
721 612 407 287 480 451 198 155 184 228 342 322 250 166 330 247 249 396 204 146 27 13 27 2 3 5 3 5 2 1 0 0 0
377 208 88 61 50 65 196 189 68 109 129 220 405 507 431 443 195 31 7 7 33 19 3 1 0 0 1 2 0 31 83 41 9
298 231 189 198 357 198 10 8 72 242 313 442 464 499 370 104 162 195 27 1 0 3 0 0 0 0 0 0 5 62 78 85 176
484 459 397 134 33 10 3 47 43 107 350 113 253 217 12 20 128 206 162 15 0 0 0 0 0 0 26 0 0 0 0 0 0
59 82 194 129 9 24 18 2 1 10 178 244 181 200 146 56 200 358 659 131 56 3 0 0 0 0 0 0 0 0 0 0 0
CIN
-37 -27 -16 -37 -65 -71 -79 -84 -77 -73 -62 -66 -46 -44 -34 -23 -5 -1 0 0 -1 0 0 0 0 0 0 0 -6 -9 -85 -105 0
-24 -24 -30 -41 -75 -104 -115 -107 -83 -68 -59 -59 -42 -32 -30 -28 -26 -14 0 0 0 0 0 0 0 0 0 -19 0 0 0 0 -67
-13 -19 -38 -55 -74 -88 -114 -112 -107 -93 -66 -54 -34 -18 -22 -16 -11 -10 -1 0 0 0 0 0 0 0 -12 -83 0 0 0 0 0
-12 -16 -40 -52 -76 -88 -106 -127 -116 -120 -109 -70 -53 -39 -34 -19 -6 -2 -2 0 0 0 0 0 0 -3 -43 -137 0 0 0 0 0
-51 -46 -40 -50 -81 -114 -115 -123 -124 -110 -115 -95 -82 -61 -61 -47 -36 -7 0 0 0 0 0 0 0 -1 -46 -129 -230 0 0 0 0
-95 -64 -76 -79 -83 -112 -116 -110 -125 -101 -108 -94 -78 -89 -72 -70 -56 -22 0 0 0 0 -3 -2 0 -5 -50 -110 -55 -187 -225 -62 -212
-94 -106 -104 -79 -89 -99 -132 -137 -136 -133 -111 -98 -100 -81 -78 -59 -35 -11 -1 -10 0 0 0 0 0 -9 -32 -117 -177 -187 -185 -203 -196
-105 -94 -107 -107 -103 -135 -149 -152 -149 -141 -120 -107 -93 -84 -62 -36 -12 -2 0 0 0 0 0 0 0 -1 -37 -117 -138 -114 -156 -28 -207
-103 -115 -135 -160 -167 -169 -145 -162 -161 -145 -122 -96 -75 -60 -31 -4 0 0 0 -3 -8 -16 -28 -13 -30 -33 -43 -91 -113 0 0 0 -155
-143 -180 -219 -247 -242 -201 -161 -145 -158 -141 -123 -89 -57 -28 -9 -8 -15 -14 -81 -118 -181 -184 -91 -25 -14 -14 -25 -78 -61 0 0 0 -118
-167 -213 -238 -262 -248 -237 -229 -180 -148 -124 -93 -81 -108 -67 -56 -34 -76 -199 -269 -207 -190 -280 -153 -6 0 -1 -35 -18 -26 0 0 0 -77
-211 -243 -255 -267 -283 -281 -256 -212 -210 -299 -269 -187 -139 -169 -257 -208 -191 -164 -134 -71 -13 -7 -13 -7 -7 -7 -7 -14 -3 0 0 0 -9
-210 -235 -281 -257 -253 -228 -225 -214 -241 -227 -189 -193 -329 -323 -205 -19 -17 -178 -62 -38 -28 -7 -1 0 -1 -7 -2 -2 0 0 0 0 -4
-211 -217 -215 -188 -202 -236 -233 -161 -110 -112 -108 -106 -140 -108 -98 -125 -95 -50 -48 0 0 -130 -40 0 -3 0 0 -2 -16 -9 0 0 -31
-206 -218 -151 -115 -93 -148 -202 -111 -89 -89 -98 -55 -73 -59 -71 -45 -9 -22 -32 -40 0 -114 -74 -38 -4 -1 0 -1 -13 0 0 0 0
-220 -232 -238 -244 -148 -131 -196 -178 -122 -86 -51 -34 -36 -41 -13 -11 -10 -1 -4 -20 -5 -15 -1 -1 0 0 0 -1 0 0 0 0 0
-248 -287 -349 -357 -349 -283 -152 -116 -131 -95 -79 -29 0 0 0 0 -18 -11 -27 0 -39 0 0 0 0 0 0 0 0 -8 -7 -29 -5
-237 -233 -231 -187 -84 -144 0 0 -74 -28 -10 -1 0 0 -1 -35 -12 -8 -57 0 0 0 0 0 0 0 0 0 -63 -9 -21 -36 -1
-124 -92 -83 -211 -245 -13 0 -51 -64 -16 -1 -7 0 -1 -18 -61 -39 -8 -2 -37 0 0 0 0 0 0 -1 0 0 0 0 0 0
-421 -263 -117 -111 -63 -97 -88 0 0 -71 -3 0 0 -2 -2 -10 -7 -1 0 -4 -6 -21 0 0 0 0 0 0 0 0 0 0 0
Wind_Speed
3 4 7 9 11 12 13 14 14 14 16 15 17 16 14 12 13 9 8 10 9 6 5 6 6 7 5 5 4 4 3 5 5
4 4 4 6 9 11 13 15 15 14 14 15 16 17 13 12 11 12 9 8 5 8 7 4 6 8 7 6 5 5 4 4 5
6 5 5 7 8 10 11 13 13 13 13 13 15 15 13 11 12 12 11 10 10 9 8 7 8 9 8 6 5 5 5 4 4
6 6 7 8 8 8 10 11 13 13 13 14 14 14 13 13 12 13 12 11 11 10 10 9 9 9 8 7 6 5 4 3 2
2 2 7 7 7 7 8 10 12 14 13 14 14 13 13 14 13 11 12 11 11 10 9 9 8 8 8 7 7 6 6 6 5
3 5 6 7 7 7 7 9 10 12 13 14 12 12 13 14 14 13 12 12 11 10 9 9 9 9 9 8 8 7 7 6 5
3 4 4 5 4 5 5 6 8 9 11 11 12 12 13 13 14 13 12 11 11 10 10 10 10 10 10 9 9 8 8 8 7
6 4 3 3 1 2 5 6 6 7 8 9 10 10 11 12 11 11 10 9 7 7 7 7 8 9 9 10 10 9 10 8 8
11 11 9 9 7 6 5 6 5 5 6 7 7 8 8 8 8 9 8 6 9 5 5 9 11 13 12 12 9 11 8 7 8
11 11 11 12 12 11 10 8 5 4 3 3 4 5 4 4 6 7 8 9 4 7 7 13 14 13 13 13 12 12 11 9 9
10 10 10 10 10 10 11 10 10 8 8 7 8 3 4 5 7 6 3 2 3 7 12 16 12 11 9 12 11 12 10 9 11
10 10 9 9 9 9 9 9 11 10 10 9 8 10 8 6 4 3 5 9 11 13 14 14 14 16 16 14 10 11 13 7 10
10 11 10 9 10 10 11 10 9 9 9 9 8 5 3 4 3 5 7 11 14 14 13 15 11 15 14 12 11 11 13 13 7
10 10 9 9 11 11 10 9 9 9 7 7 5 4 5 5 5 7 8 10 12 14 13 12 9 9 10 10 8 8 7 8 6
9 8 9 9 9 9 7 8 6 7 8 6 5 5 6 6 7 7 8 12 15 12 7 8 6 8 8 6 6 8 7 8 11
9 9 8 8 8 9 9 9 8 7 6 4 2 2 4 5 7 7 9 12 14 9 7 7 8 6 8 7 5 5 8 5 8
9 9 8 8 9 8 7 7 6 6 6 5 4 5 6 7 8 9 10 7 9 9 8 9 9 8 7 5 3 4 1 3 5
9 8 7 7 8 9 8 7 8 8 7 6 8 7 6 7 6 4 7 9 8 9 10 7 8 8 7 5 4 3 2 3 4
8 9 9 8 7 8 7 7 8 8 8 9 6 7 7 4 4 4 4 5 7 16 11 12 12 8 3 3 5 2 2 2 3
9 8 8 8 9 8 8 8 8 8 6 6 6 5 4 4 2 4 4 5 3 8 9 17 16 15 15 14 7 9 9 9 8
Wind_Direction
134 198 204 202 190 198 193 190 191 191 186 202 198 200 207 210 216 208 221 217 238 212 228 218 172 199 202 207 233 256 245 232 253
181 183 158 170 171 185 189 192 191 193 192 199 205 202 205 208 214 222 222 245 210 220 228 193 193 195 194 196 199 214 202 232 227
135 126 130 150 171 175 182 193 188 195 196 206 208 210 204 209 212 212 218 223 220 231 212 215 183 194 194 195 198 200 213 177 179
105 120 140 154 162 170 176 183 188 194 202 203 206 208 211 213 210 213 215 224 217 219 215 197 197 196 194 188 188 190 213 252 144
89 144 142 151 160 169 174 186 195 194 203 205 209 208 212 216 220 224 212 222 212 215 221 206 205 202 199 196 193 185 199 206 161
170 181 159 164 164 170 197 195 205 206 204 214 210 205 210 218 212 212 223 207 219 206 214 216 207 201 202 202 200 196 194 204 191
128 171 149 160 175 179 205 226 218 224 223 219 218 209 209 210 213 213 214 210 212 214 215 212 209 205 210 208 202 195 201 195 194
82 89 99 95 274 233 247 252 256 253 251 235 234 227 222 213 216 210 211 202 201 216 228 233 231 224 215 213 209 204 197 196 191
69 64 57 45 31 8 343 327 305 293 271 261 242 244 248 236 207 203 185 118 125 155 221 233 213 219 214 214 223 134 157 223 202
65 57 47 38 31 23 11 352 347 329 322 259 236 235 253 93 113 127 145 151 171 149 210 221 220 223 223 208 218 152 166 209 239
64 52 44 38 33 30 21 22 34 33 36 48 72 86 123 104 88 76 18 344 327 286 256 243 226 215 226 215 208 153 163 197 237
63 58 51 46 43 42 40 44 52 64 63 63 67 70 72 73 52 345 293 277 251 245 249 240 226 217 208 205 199 154 145 185 230
70 63 58 50 58 63 62 62 76 81 83 84 80 70 62 26 359 308 303 312 302 284 268 253 221 217 206 181 183 152 156 152 269
81 72 63 78 66 65 67 66 68 69 66 57 42 46 46 49 27 359 354 329 314 287 269 243 226 206 197 168 154 144 157 136 295
80 76 67 62 71 73 61 54 59 60 53 56 67 71 71 51 24 4 5 350 346 325 279 242 215 177 148 118 100 108 145 158 218
88 83 76 72 84 84 73 61 48 60 56 35 73 98 48 19 5 6 5 16 20 11 41 69 62 68 75 62 76 105 141 158 240
105 97 91 92 92 82 65 44 47 41 28 9 11 43 34 59 56 45 33 22 51 54 55 75 82 87 92 84 50 53 148 197 222
107 102 98 89 76 68 67 53 45 48 41 27 62 67 66 59 64 65 84 57 15 48 48 34 107 117 122 129 155 231 278 266 260
112 97 88 82 95 84 81 84 68 46 41 42 55 95 81 38 38 25 38 88 91 60 64 53 49 48 91 95 42 50 30 14 1
110 108 106 91 79 78 75 66 53 37 30 37 55 68 86 83 74 69 63 92 58 96 78 67 47 41 49 56 60 41 59 66 80